CW8822 Caguas PR US current weather conditions

sailwx.info

Wind from 168

Air temperature 26.1° C
Dewpoint 18.0° C

Last reported at 2017-Jan-23 19:35 UTC.
Time now 2017-Jan-23 20:51 UTC

Location: N 18°12' W 066°01'.
View on Google Maps.

See reports from other nearby stations

  
Tides and Currents Weather Stations Pressure Air Temp Water Temp Dewpoint Dewpoint Depression Visibility Wind Speed Wind Dir Waves Ship Positions
date/time (UTC)wind fromknots sea level pressurealtimeterstation pressurevisibilityair tempwater tempwave heightnotes
2017-Jan-23 19:35 168 26.1
2017-Jan-23 19:21 168 0 gusting 9 26.7
2017-Jan-23 19:06 138 2 gusting 10 26.1
2017-Jan-23 18:51 164 26.7
2017-Jan-23 18:35 136 0 gusting 8 26.1
2017-Jan-23 18:20 165 0 gusting 12 26.1
2017-Jan-23 18:06 164 26.1
2017-Jan-23 17:51 182 4 gusting 9 25.6
2017-Jan-23 17:35 128 1 gusting 10 26.1
2017-Jan-23 17:20 116 0 gusting 8 26.1
2017-Jan-23 17:05 110 0 gusting 6 25.6
2017-Jan-23 16:49 182 1 gusting 7 25.6
2017-Jan-23 16:35 172 25.6
2017-Jan-23 16:20 140 3 gusting 8 25.0
2017-Jan-23 16:05 108 0 gusting 5 25.0
2017-Jan-23 15:51 180 25.6
2017-Jan-23 15:34 139 3 gusting 11 25.6
2017-Jan-23 15:20 173 25.0
2017-Jan-23 15:04 140 25.0
2017-Jan-23 14:49 157 0 gusting 7 24.4
2017-Jan-23 14:35 167 0 gusting 13 24.4
2017-Jan-23 14:20 121 3 gusting 8 23.9
2017-Jan-23 14:04 136 23.3
2017-Jan-23 13:49 092 23.9
2017-Jan-23 13:34 089 24.4
2017-Jan-23 13:18 089 23.9
2017-Jan-23 13:04 089 22.8
2017-Jan-23 12:49 089 21.7
2017-Jan-23 12:33 089 20.6
2017-Jan-23 12:18 089 20.0
2017-Jan-23 12:03 089 20.0
2017-Jan-23 11:48 089 19.4
2017-Jan-23 11:33 089 18.9
2017-Jan-23 11:18 089 18.9
2017-Jan-23 11:03 089 19.4
2017-Jan-23 10:48 089 19.4
2017-Jan-23 10:33 089 18.9
2017-Jan-23 10:18 089 18.9
2017-Jan-23 10:03 089 18.9
2017-Jan-23 09:48 089 18.9
2017-Jan-23 09:33 089 18.9
2017-Jan-23 09:18 089 18.9
2017-Jan-23 09:03 089 19.4
2017-Jan-23 08:48 089 19.4
2017-Jan-23 08:33 089 18.9
2017-Jan-23 08:18 089 18.9
2017-Jan-23 08:03 089 18.9
2017-Jan-23 07:48 089 18.9
2017-Jan-23 07:32 089 18.9
2017-Jan-23 07:18 089 18.9
2017-Jan-23 07:02 089 18.9
2017-Jan-23 06:47 089 18.9
2017-Jan-23 06:32 089 18.9
2017-Jan-23 06:17 089 18.9
2017-Jan-23 06:02 089 18.9
2017-Jan-23 05:47 089 18.9
2017-Jan-23 05:32 089 18.9
2017-Jan-23 05:17 089 19.4
2017-Jan-23 05:02 089 19.4
2017-Jan-23 04:47 089 20.0
2017-Jan-23 04:32 089 19.4
2017-Jan-23 04:17 089 19.4
2017-Jan-23 04:02 089 19.4
2017-Jan-23 03:47 089 19.4
2017-Jan-23 03:32 089 19.4
2017-Jan-23 03:17 089 20.0
2017-Jan-23 03:02 089 20.0
2017-Jan-23 02:47 089 20.0
2017-Jan-23 02:32 089 20.0
2017-Jan-23 02:17 089 20.6
2017-Jan-23 02:02 089 20.6
2017-Jan-23 01:47 089 21.1
2017-Jan-23 01:32 089 21.1
2017-Jan-23 01:17 089 21.1
2017-Jan-23 01:03 089 21.1
2017-Jan-23 00:47 089 21.1
2017-Jan-23 00:32 089 21.7
2017-Jan-23 00:17 089 21.7
2017-Jan-23 00:02 089 21.1
2017-Jan-22 23:47 089 21.7
2017-Jan-22 23:32 089 21.7
2017-Jan-22 23:17 089 21.7
2017-Jan-22 23:02 089 22.2
2017-Jan-22 22:47 089 22.2
2017-Jan-22 22:32 089 22.2
2017-Jan-22 22:17 089 22.2
2017-Jan-22 22:02 082 22.8
2017-Jan-22 21:47 082 22.8
2017-Jan-22 21:32 082 22.8
2017-Jan-22 21:17 082 23.3
2017-Jan-22 21:02 077 23.9
2017-Jan-22 20:47 072 24.4
2017-Jan-22 20:32 072 24.4
2017-Jan-22 20:17 071 24.4
2017-Jan-22 20:02 070 24.4
2017-Jan-22 19:47 070 25.0
2017-Jan-22 19:32 308 25.6
2017-Jan-22 19:17 305 25.6
2017-Jan-22 19:02 328 0 gusting 4 25.6
2017-Jan-22 18:47 323 26.7
2017-Jan-22 18:32 323 25.6
2017-Jan-22 18:17 319 1 gusting 6 25.6
2017-Jan-22 18:02 323 0 gusting 6 25.6
2017-Jan-22 17:47 309 25.6
2017-Jan-22 17:32 307 26.1
2017-Jan-22 17:17 307 26.1
2017-Jan-22 17:02 306 25.6
2017-Jan-22 16:47 300 26.1
2017-Jan-22 16:32 300 26.1
2017-Jan-22 16:17 300 25.6
2017-Jan-22 16:01 300 25.6
2017-Jan-22 15:46 299 24.4
2017-Jan-22 15:31 292 24.4
2017-Jan-22 15:16 292 0 gusting 4 24.4
2017-Jan-22 15:01 292 23.9
2017-Jan-22 14:46 291 0 gusting 5 23.9
2017-Jan-22 14:31 269 23.9
2017-Jan-22 14:16 269 23.9
2017-Jan-22 14:01 269 23.3
2017-Jan-22 13:46 269 22.8
2017-Jan-22 13:31 269 22.2
2017-Jan-22 13:16 269 21.7
2017-Jan-22 13:01 269 21.7
2017-Jan-22 12:46 269 21.1
2017-Jan-22 12:31 269 21.1
2017-Jan-22 12:16 269 20.6
2017-Jan-22 12:01 269 20.0
2017-Jan-22 11:46 269 20.0
2017-Jan-22 11:31 269 19.4
2017-Jan-22 11:15 269 19.4
2017-Jan-22 11:00 269 19.4
2017-Jan-22 10:45 269 0 gusting 5 19.4
2017-Jan-22 10:31 269 1 gusting 5 19.4
2017-Jan-22 10:15 269 19.4
2017-Jan-22 10:00 269 19.4
2017-Jan-22 09:45 269 19.4
2017-Jan-22 09:30 269 20.0
2017-Jan-22 09:15 269 20.0
2017-Jan-22 09:00 269 20.0
2017-Jan-22 08:45 269 0 gusting 4 20.0
2017-Jan-22 08:30 269 20.0
2017-Jan-22 08:15 269 20.0
2017-Jan-22 08:00 269 0 gusting 4 20.0
2017-Jan-22 07:45 269 20.0
2017-Jan-22 07:30 269 20.0
2017-Jan-22 07:15 269 20.6
2017-Jan-22 07:00 269 1 gusting 4 20.6
2017-Jan-22 06:45 269 20.6
2017-Jan-22 06:30 269 20.6
2017-Jan-22 06:15 269 20.6
2017-Jan-22 06:00 269 1 gusting 4 20.0
2017-Jan-22 05:45 269 20.6
2017-Jan-22 05:30 269 20.6
2017-Jan-22 05:15 269 20.6
2017-Jan-22 05:00 269 20.0
2017-Jan-22 04:45 269 20.6
2017-Jan-22 04:30 269 20.6
2017-Jan-22 04:15 269 20.6
2017-Jan-22 04:00 269 20.6
2017-Jan-22 03:45 269 20.6
2017-Jan-22 03:30 269 20.6
2017-Jan-22 03:15 269 21.1
2017-Jan-22 03:00 269 21.1
2017-Jan-22 02:45 269 21.1
2017-Jan-22 02:30 272 3 gusting 6 21.1
2017-Jan-22 02:15 281 3 gusting 6 21.1
2017-Jan-22 02:00 289 3 gusting 6 21.1
2017-Jan-22 01:45 294 2 gusting 6 21.1
2017-Jan-22 01:30 301 2 gusting 4 21.1
2017-Jan-22 01:15 302 1 gusting 6 21.1
2017-Jan-22 01:00 309 1 gusting 5 21.1
2017-Jan-22 00:45 313 2 gusting 5 21.1
2017-Jan-22 00:30 314 21.7
2017-Jan-22 00:15 314 21.7
2017-Jan-22 00:00 314 21.7
2017-Jan-21 23:45 314 21.7
2017-Jan-21 23:30 314 22.2
2017-Jan-21 23:15 314 0 gusting 4 22.2
2017-Jan-21 23:00 314 22.2
2017-Jan-21 22:45 314 22.2
2017-Jan-21 22:30 314 22.2
2017-Jan-21 22:15 315 1 gusting 5 22.2
2017-Jan-21 22:00 317 4 gusting 8 22.2
2017-Jan-21 21:45 296 2 gusting 6 22.8
2017-Jan-21 21:30 016 23.3
2017-Jan-21 21:15 015 2 gusting 7 23.3
2017-Jan-21 21:00 321 23.3
2017-Jan-21 20:45 320 2 gusting 6 23.3
2017-Jan-21 20:30 355 0 gusting 5 23.9
2017-Jan-21 20:15 019 23.9
2017-Jan-21 20:00 015 23.9